sat.trackr.live / text

‹ back to catalog

STARLINK-34766

NORAD 66505 · 2025-263W

PAYLOAD ACTIVE UNKNOWN

§ Identity

Operator
Country
US
Launch date
2025-11-15
Launch site
AFETR
Launch vehicle
Mass (kg)
RCS (m²)

Purposes: comms

External: N2YO · Heavens-Above · Gunter

§ Orbital elements

Epoch: 2026-05-25T01:30:27.272160Z

Period
94.27 min
Inclination
43.0029°
Eccentricity
0.0000827
Mean motion
15.27581294 rev/d
Perigee alt
482.5 km
Apogee alt
483.6 km
Semi-major
6,861.2 km
B*
5.9555e-4
RAAN
278.9925°
Arg perigee
0.0170°
Mean anomaly
0.0682°
Rev number
3,058

§ Raw data

STARLINK-347661 66505U 25263W   26145.06281565  .00016163  00000+0  59555-3 0  99992 66505  43.0029 278.9925 0000827   0.0170   0.0682 15.27581294 30585

JSON: /api/v1/satellites/66505 · /tle

For live sub-satellite position, see the globe view (requires WebGL).

§ Visibility from observer

Set your observer location to see the next 7 days of passes ≥ 10°. The values pass through the URL so the page stays shareable.

No JS? Fill the form by hand. The geolocation button needs JavaScript.